Location: Abundant Grace Fellowship
(35.0349°N, 90.0924°W)
Time: 21:59:27
(UTC+00:00)

Cosmos 1758 - Pass Details

Date: 18 January 2026
Orbit: 479 x 500 km, 82.5° (Epoch: 10 February)

Event Time Altitude Azimuth Distance (km) Brightness Sun altitude
Rises 11:43:01 0° 200° (SSW) 2,574 6.7 -17.1°
Reaches altitude 10° 11:45:12 10° 207° (SSW) 1,693 5.7 -16.6°
Maximum altitude 11:48:44 42° 279° (W) 722 3.4 -15.9°
Drops below altitude 10° 11:52:16 10° 352° (N) 1,693 5.6 -15.2°
Sets 11:54:27 0° 359° (N) 2,575 6.6 -14.8°
